Temperature
11 11 10 10 11 11 11 11 11 13 12 11 10 11 12 13 13 13 13 13 12 12 11 10 9 9 8 8 8 7 7 7 6 6 6 6 6 6 6 6 6 6 7 7
11 10 11 11 11 11 11 10 11 12 12 11 10 10 11 12 12 13 13 13 12 11 10 10 9 8 8 8 7 7 7 6 6 6 5 5 5 5 5 5 6 6 6 6
11 10 11 11 10 10 10 10 10 10 10 10 9 9 12 12 13 13 12 12 12 11 10 9 9 8 8 7 7 7 6 6 6 5 5 5 5 5 5 5 5 5 5 6
11 10 10 10 10 10 9 10 9 9 8 7 9 7 11 12 11 11 12 12 11 11 10 9 8 8 7 7 7 6 6 6 5 5 5 5 4 4 4 5 5 5 5 5
10 10 9 9 10 10 9 9 9 8 7 6 8 6 8 12 11 11 11 11 11 10 9 9 8 8 7 7 6 6 6 5 5 5 5 4 4 4 4 4 4 4 4 5
9 9 9 9 9 9 9 8 8 8 7 5 8 7 8 11 11 11 10 11 10 10 9 9 8 7 7 6 6 6 5 5 5 5 4 4 4 4 4 4 4 4 4 4
9 9 9 8 8 8 8 7 7 7 6 7 10 8 8 12 12 11 10 10 10 9 9 8 8 7 7 6 6 6 5 5 5 4 4 4 4 4 4 4 3 3 3 4
9 8 8 8 8 7 7 7 7 7 8 9 9 8 10 12 12 11 11 10 10 9 9 8 7 7 6 6 6 5 5 5 4 4 4 4 4 3 3 3 3 3 3 3
9 8 8 8 8 8 7 7 8 6 6 5 7 10 11 11 11 10 10 10 9 9 8 8 7 7 6 6 6 5 5 4 4 4 4 4 3 3 3 3 3 3 3 3
8 8 7 7 7 6 7 7 6 5 6 6 8 10 9 10 10 10 9 9 9 9 8 8 7 7 6 6 5 5 4 4 4 3 3 3 3 3 3 3 3 3 3 3
7 6 6 5 5 5 5 5 6 6 6 6 6 8 11 10 10 9 8 9 9 8 8 7 7 6 6 5 5 4 4 4 3 3 3 3 3 3 3 3 3 3 2 2
6 6 5 6 6 6 5 6 5 5 5 5 5 6 10 9 9 9 9 9 9 8 8 7 6 6 5 5 5 4 4 3 3 3 3 3 3 3 2 2 2 2 2 2
5 4 5 5 4 4 4 4 4 4 4 4 5 6 9 8 8 9 9 9 8 8 7 6 6 5 5 4 4 4 3 3 3 2 2 2 2 2 2 2 2 2 2 2
5 3 4 6 6 3 3 3 3 3 3 3 5 6 8 8 8 8 8 8 7 7 6 6 5 5 4 4 4 3 3 3 2 2 2 2 2 1 1 1 1 1 1 1
4 3 3 5 6 5 4 3 3 3 3 3 5 6 7 7 7 7 8 7 7 6 6 5 5 4 4 3 3 3 3 2 2 2 2 1 1 1 1 1 1 1 1 1
3 3 3 4 5 5 5 4 4 3 3 4 4 5 7 7 7 7 7 6 6 5 5 5 4 3 3 3 2 2 2 2 2 1 1 1 1 1 1 1 1 1 1 1
2 2 2 3 4 4 3 5 5 4 4 4 4 5 6 6 6 6 6 6 5 5 5 4 3 3 2 2 2 2 1 1 1 1 1 1 0 0 0 1 1 0 0 0
2 2 2 3 3 2 5 6 6 5 5 5 4 4 5 5 6 6 6 5 5 5 4 3 3 2 2 1 1 1 1 1 1 1 0 0 -0 -0 0 1 0 0 -0 -0
2 2 2 2 2 3 5 6 5 4 4 5 4 5 5 5 5 5 6 5 5 4 3 3 2 2 1 1 1 0 0 0 0 -0 -0 -0 -0 -0 -0 0 0 -0 -0 -0
2 1 2 2 2 3 5 5 5 4 2 4 4 4 4 4 2 3 5 4 4 3 3 2 1 1 1 0 0 -0 -0 -0 -1 -1 -1 -1 -1 -1 -0 -0 -0 -0 -0 -0
1 1 1 1 2 3 5 4 4 3 3 5 5 5 4 3 3 4 4 3 3 2 2 1 1 0 0 -0 -1 -1 -1 -1 -1 -1 -1 -1 -1 -1 -1 -1 -1 -1 -1 -0
1 0 0 1 1 2 4 3 3 3 5 5 5 5 4 4 4 3 3 2 2 1 1 1 0 -0 -0 -1 -1 -1 -1 -1 -1 -2 -2 -1 -1 -1 -1 -1 -1 -1 -1 -1
2 2 2 2 3 4 4 4 4 5 4 4 4 4 4 3 3 2 2 1 1 1 0 0 -0 -1 -1 -1 -2 -2 -2 -2 -2 -2 -2 -2 -2 -2 -1 -1 -1 -1 -1 -1
2 3 2 2 3 4 5 5 4 4 4 4 3 3 3 2 2 2 1 1 0 0 -0 -0 -1 -1 -1 -2 -2 -2 -2 -2 -2 -2 -2 -2 -2 -2 -2 -2 -2 -2 -2 -2
2 2 1 1 2 3 4 4 4 4 3 3 3 2 2 1 1 1 0 0 -0 -1 -1 -1 -1 -2 -2 -2 -2 -3 -3 -3 -3 -3 -3 -3 -2 -2 -2 -2 -2 -2 -2 -2
2 1 1 1 2 2 2 3 3 3 2 2 2 1 1 1 0 -0 -1 -1 -1 -1 -2 -2 -2 -2 -3 -3 -3 -3 -3 -3 -4 -4 -3 -3 -3 -3 -3 -2 -2 -2 -2 -2
Wind_Speed
5 3 3 3 4 3 4 5 7 6 2 3 9 14 15 10 8 8 7 5 4 3 1 1 1 2 2 3 3 3 3 4 3 3 4 4 5 5 5 5 6 7 7 7
4 5 3 1 1 3 5 7 7 6 2 4 10 16 15 10 9 7 6 5 4 2 0 0 1 1 2 3 3 3 4 4 4 4 4 5 5 5 6 5 6 7 7 7
5 2 3 4 4 4 6 6 5 7 9 7 8 10 6 4 5 5 6 5 3 2 2 1 1 2 2 3 3 4 5 5 5 5 4 5 4 5 6 5 5 6 7 8
4 4 3 4 5 4 4 2 4 6 6 5 3 6 5 5 6 7 6 4 3 2 1 1 2 3 3 3 3 4 5 6 6 5 5 6 6 7 8 6 6 7 8 8
3 4 4 5 4 4 1 3 4 5 5 6 5 5 8 6 6 7 6 4 3 2 1 1 2 2 3 2 3 5 6 6 6 6 6 7 7 7 7 6 7 7 7 8
3 1 2 2 1 2 1 3 5 4 2 5 7 7 7 4 6 5 5 4 3 2 1 1 1 2 3 3 4 5 6 6 6 6 6 7 8 9 9 8 8 7 6 7
6 6 4 2 3 4 3 1 1 2 3 6 5 6 8 4 3 4 5 4 3 2 1 1 2 3 4 4 4 5 5 6 6 6 7 8 9 10 10 10 9 8 7 7
6 6 8 6 4 4 5 4 3 3 4 2 2 7 6 3 4 5 4 3 2 2 2 2 3 4 4 5 5 5 6 7 7 7 8 8 9 8 7 9 8 8 7 8
5 3 4 5 2 1 4 4 0 1 2 4 6 6 4 5 4 4 3 2 2 2 3 3 4 4 5 5 5 6 7 7 8 8 8 9 9 8 8 8 8 7 7 8
2 2 5 4 2 3 3 1 3 4 3 5 6 7 4 5 4 3 2 3 3 3 4 4 4 5 5 5 5 6 7 7 8 8 8 9 8 8 7 7 8 8 9 9
2 3 5 5 8 8 6 4 5 4 3 4 5 5 1 4 4 2 3 3 2 2 4 5 5 5 6 6 6 7 7 8 7 7 8 8 8 8 8 7 8 8 9 10
4 3 4 5 2 2 5 6 7 5 5 5 4 7 1 4 3 1 1 2 2 3 4 5 6 6 6 6 7 7 7 8 8 7 8 8 9 9 8 9 9 9 10 9
5 4 3 3 1 2 4 6 6 3 2 5 6 7 1 1 1 1 2 4 4 4 5 5 6 6 7 7 7 7 8 8 8 7 8 8 9 9 9 9 9 9 9 9
4 4 7 7 2 5 5 7 8 7 6 8 11 13 10 7 6 5 5 5 5 5 6 6 6 7 7 8 8 8 9 8 8 8 8 9 9 9 9 9 9 9 9 9
4 5 7 10 9 5 8 9 12 14 13 11 11 14 16 10 8 8 7 6 6 6 7 6 7 8 8 9 9 9 9 9 8 8 8 9 9 8 9 9 8 9 9 10
4 4 4 8 11 12 13 14 15 16 16 18 19 21 16 11 7 7 6 6 6 7 7 7 8 9 9 9 9 10 9 9 8 8 9 9 9 9 9 9 9 9 8 9
6 5 4 6 6 7 12 14 16 13 12 12 18 17 10 9 8 7 6 5 6 7 7 8 8 8 9 9 9 10 9 10 9 9 9 9 9 9 9 10 9 9 8 8
6 6 4 4 3 10 9 5 10 14 15 15 12 10 8 8 6 6 7 6 6 6 6 7 7 8 8 9 9 9 9 9 9 9 9 9 9 10 10 9 9 9 8 7
8 7 5 4 6 9 9 5 5 7 10 11 13 13 11 7 6 7 6 3 4 5 5 6 6 7 9 9 9 9 10 10 9 9 9 10 9 9 10 10 10 8 7 7
7 7 6 5 6 8 5 1 3 2 7 6 8 8 6 2 4 5 3 3 4 5 4 5 6 8 9 9 8 9 10 10 10 10 10 9 8 9 10 10 9 8 7 7
7 7 10 10 8 8 5 4 5 4 6 1 2 3 2 3 5 4 4 4 4 5 6 6 6 7 8 8 8 9 10 9 10 10 9 9 9 8 9 9 7 7 7 6
10 8 8 7 9 10 4 6 6 6 1 1 1 2 3 4 4 4 5 5 5 6 6 6 6 7 7 7 7 9 10 9 10 10 10 10 9 8 8 8 7 6 6 6
9 10 7 9 9 4 7 6 5 2 2 2 2 3 3 4 5 5 5 5 6 6 6 6 6 8 8 7 6 9 9 9 10 10 10 10 10 8 8 7 6 6 5 5
6 5 5 6 8 6 5 5 4 4 4 3 3 3 4 5 6 6 5 5 5 6 6 5 6 8 8 7 6 7 8 8 9 10 10 9 9 9 8 6 5 5 5 5
5 4 5 8 7 6 6 5 4 4 4 3 3 4 4 5 6 6 5 6 5 5 5 5 6 7 8 7 7 7 7 8 9 9 9 9 8 8 7 6 5 6 5 5
6 6 7 7 4 4 5 4 3 4 5 4 4 5 4 4 5 5 5 5 5 5 5 6 6 7 8 7 7 7 7 7 8 9 8 7 7 7 6 6 7 8 7 9
Wind_Direction
190 227 211 196 204 271 315 305 292 293 34 298 266 274 276 264 239 232 230 220 212 213 194 110 158 230 246 264 273 271 280 287 294 290 285 283 280 280 278 263 267 269 271 270
200 220 218 188 212 257 266 279 282 297 0 304 281 280 273 254 233 222 219 214 202 204 152 118 248 252 251 264 276 283 282 285 284 277 271 265 268 271 270 264 265 262 266 267
220 114 154 211 224 254 253 259 291 306 321 272 276 288 238 193 200 197 203 202 190 184 205 231 259 276 279 281 282 291 283 282 279 278 276 281 276 277 276 270 263 254 258 261
229 202 201 225 225 229 258 346 308 305 315 299 307 294 265 206 195 196 195 186 184 173 194 232 261 276 273 273 275 280 282 285 282 278 273 274 271 273 272 268 264 261 256 258
218 167 201 227 229 219 251 2 295 280 276 289 243 242 274 214 202 200 187 180 176 162 187 249 258 274 277 273 269 271 277 277 277 274 267 268 266 267 270 268 268 266 260 258
248 150 229 239 191 240 291 275 252 241 262 269 219 210 270 215 201 190 175 168 164 166 196 265 292 284 280 273 267 272 277 279 276 275 273 272 269 273 275 274 269 265 265 263
213 201 184 194 196 189 203 218 274 231 226 247 179 208 249 238 158 155 161 171 186 190 208 251 288 288 282 278 274 279 283 286 285 285 281 279 276 271 269 271 266 264 263 264
209 201 177 182 196 175 190 199 183 233 266 309 203 235 249 173 124 129 144 163 181 208 232 247 264 275 278 278 276 281 278 282 283 284 280 276 277 272 265 265 264 263 259 259
221 174 131 162 199 219 182 200 172 235 279 279 254 246 251 158 144 152 161 169 228 249 256 261 270 281 283 282 278 280 283 279 280 279 281 282 280 278 274 273 266 266 266 269
266 199 156 144 179 257 285 169 157 187 233 260 262 244 226 172 191 193 201 235 250 263 272 276 278 283 285 281 283 287 287 285 279 281 283 290 285 281 277 278 275 272 271 269
226 190 158 170 203 194 184 200 205 216 235 237 272 264 85 137 150 185 221 243 265 284 297 301 301 294 294 294 294 292 290 288 288 285 284 287 288 287 283 280 280 278 273 269
198 195 220 202 174 228 202 205 187 194 224 213 251 270 261 115 110 96 283 309 315 307 302 302 305 308 306 303 300 297 295 293 292 290 290 290 291 292 286 283 283 284 283 276
161 171 202 203 222 221 226 223 215 220 247 224 229 254 181 81 359 306 302 301 303 308 314 313 312 312 312 310 307 304 300 297 296 297 296 295 295 291 290 286 286 286 285 282
162 195 215 222 197 172 211 217 207 200 215 235 234 253 269 276 288 296 298 297 305 310 313 314 315 314 313 312 309 308 307 302 299 298 297 297 297 293 290 290 287 287 287 285
166 224 242 261 270 237 226 221 210 216 223 232 249 257 266 278 292 301 307 309 309 311 311 313 314 313 314 314 312 312 308 307 302 298 295 294 296 296 296 292 289 288 286 285
185 233 259 261 253 255 253 238 224 225 233 244 259 268 268 280 291 296 303 308 306 304 307 310 311 313 313 312 313 314 311 312 310 301 299 300 303 306 302 296 290 288 288 287
189 201 227 258 257 277 257 237 225 224 222 225 243 254 274 280 281 288 296 291 287 292 300 306 308 309 310 311 313 312 311 313 311 306 306 309 308 306 302 301 297 292 290 286
187 194 219 256 254 244 247 224 217 226 235 228 240 260 268 269 283 292 288 283 284 294 298 300 304 309 308 308 310 309 311 312 310 309 311 312 311 308 305 303 299 292 286 282
195 193 217 226 243 266 268 232 198 213 253 232 234 250 260 269 292 285 272 272 287 297 297 297 301 307 310 309 312 314 312 312 311 312 313 314 312 310 311 307 302 297 292 285
201 204 221 225 238 245 248 112 105 114 270 244 220 241 259 265 280 283 331 345 314 311 310 307 308 308 306 307 314 314 311 312 312 313 314 315 315 312 309 305 301 297 291 285
192 209 221 231 243 258 244 147 118 187 249 292 202 244 237 222 237 279 325 322 313 310 307 307 305 302 301 308 315 310 309 309 311 314 316 318 315 311 308 307 302 301 301 299
188 193 206 209 228 245 172 146 189 224 312 11 318 264 261 262 278 299 304 304 304 303 305 309 306 303 306 311 312 308 309 314 318 317 317 316 314 312 312 308 306 308 309 308
203 202 199 203 221 251 175 204 221 240 274 289 297 297 287 281 283 286 289 294 296 297 302 306 304 306 308 308 311 310 312 321 321 318 317 316 316 313 310 308 309 312 313 312
229 221 239 252 255 255 235 246 248 251 258 277 290 291 289 281 283 288 292 294 297 299 303 310 309 305 307 313 318 313 317 324 321 316 315 314 314 313 317 317 312 310 310 308
227 209 238 259 274 290 269 261 264 273 281 285 284 283 281 284 291 293 297 297 298 303 308 308 303 301 305 314 317 320 324 325 321 317 314 316 317 314 315 317 313 309 305 303
230 220 221 239 239 235 257 254 255 263 269 267 270 277 275 271 280 289 292 294 299 303 306 305 305 306 310 316 317 321 326 325 320 317 317 316 316 316 315 317 320 319 318 318
Height
1477 1479 1479 1477 1478 1477 1477 1477 1477 1470 1469 1472 1470 1465 1459 1456 1457 1457 1458 1460 1462 1463 1464 1464 1464 1463 1462 1461 1460 1458 1456 1454 1452 1449 1447 1445 1443 1442 1441 1440 1439 1439 1438 1438
1476 1478 1475 1475 1476 1477 1478 1479 1476 1470 1469 1472 1468 1462 1453 1450 1450 1452 1454 1456 1458 1460 1460 1460 1460 1460 1459 1457 1456 1454 1452 1450 1448 1445 1443 1441 1439 1437 1436 1435 1434 1434 1433 1433
1472 1474 1473 1474 1476 1477 1477 1478 1477 1477 1473 1469 1469 1460 1447 1445 1446 1448 1450 1452 1454 1456 1457 1457 1457 1456 1455 1454 1452 1450 1448 1445 1443 1441 1438 1436 1434 1432 1431 1429 1428 1428 1427 1427
1470 1472 1473 1474 1474 1477 1478 1475 1477 1478 1482 1479 1472 1476 1450 1444 1445 1446 1447 1449 1451 1452 1453 1454 1453 1453 1452 1450 1448 1446 1444 1441 1439 1436 1434 1431 1429 1427 1425 1423 1422 1421 1421 1420
1468 1470 1472 1473 1473 1474 1475 1477 1478 1479 1481 1484 1473 1480 1458 1442 1444 1444 1445 1446 1448 1450 1450 1451 1450 1450 1449 1447 1445 1442 1439 1437 1434 1432 1429 1427 1424 1422 1420 1418 1416 1415 1414 1414
1469 1470 1471 1471 1473 1474 1475 1477 1477 1479 1483 1488 1469 1473 1457 1441 1439 1439 1441 1444 1446 1447 1448 1448 1448 1447 1445 1443 1441 1438 1435 1432 1430 1427 1425 1422 1420 1417 1414 1412 1409 1408 1407 1406
1468 1469 1470 1472 1473 1475 1477 1481 1481 1481 1483 1473 1456 1462 1453 1435 1433 1435 1439 1441 1443 1445 1445 1445 1444 1443 1442 1440 1437 1434 1431 1428 1425 1422 1420 1418 1415 1412 1408 1406 1403 1401 1400 1399
1463 1464 1466 1469 1470 1472 1475 1476 1482 1480 1471 1461 1456 1458 1443 1432 1432 1434 1437 1440 1441 1442 1442 1442 1441 1440 1438 1436 1433 1430 1427 1424 1421 1418 1415 1412 1409 1406 1402 1400 1397 1395 1393 1392
1458 1461 1465 1467 1468 1469 1471 1474 1472 1479 1479 1482 1461 1442 1433 1430 1432 1434 1436 1438 1439 1440 1440 1439 1438 1437 1435 1432 1429 1426 1423 1419 1416 1413 1409 1406 1403 1399 1396 1393 1391 1389 1387 1386
1457 1461 1464 1468 1470 1471 1471 1470 1477 1480 1480 1472 1453 1442 1439 1433 1433 1434 1435 1436 1437 1437 1437 1436 1435 1433 1431 1428 1425 1422 1418 1415 1411 1407 1404 1401 1397 1393 1390 1387 1384 1381 1380 1379
1458 1463 1466 1469 1469 1468 1472 1473 1472 1472 1470 1473 1465 1447 1428 1428 1430 1432 1433 1434 1434 1434 1433 1432 1431 1429 1427 1424 1421 1418 1414 1410 1406 1402 1399 1394 1390 1386 1383 1380 1377 1375 1374 1372
1457 1460 1462 1462 1462 1462 1464 1465 1468 1475 1472 1469 1470 1453 1427 1427 1428 1430 1431 1432 1432 1431 1430 1429 1427 1425 1422 1420 1417 1413 1410 1406 1402 1397 1393 1389 1385 1381 1378 1375 1371 1369 1367 1365
1457 1463 1463 1462 1467 1466 1466 1464 1464 1467 1469 1468 1466 1449 1427 1427 1428 1429 1430 1430 1429 1428 1427 1425 1423 1421 1418 1415 1412 1408 1405 1401 1397 1392 1388 1384 1380 1376 1372 1368 1365 1362 1360 1357
1455 1459 1458 1452 1450 1459 1464 1463 1463 1467 1470 1464 1453 1440 1430 1428 1428 1428 1427 1426 1426 1425 1423 1421 1419 1417 1414 1411 1407 1403 1399 1395 1391 1386 1382 1378 1374 1371 1367 1363 1359 1356 1353 1350
1454 1457 1454 1450 1447 1450 1453 1455 1458 1460 1456 1455 1441 1434 1426 1426 1426 1425 1424 1423 1422 1421 1420 1418 1415 1413 1409 1406 1403 1399 1394 1390 1385 1380 1376 1372 1368 1364 1360 1357 1353 1350 1347 1344
1453 1455 1452 1449 1444 1444 1444 1443 1445 1448 1448 1443 1438 1431 1422 1422 1422 1422 1421 1420 1419 1418 1416 1414 1412 1409 1406 1402 1398 1394 1389 1385 1380 1375 1371 1367 1362 1358 1354 1350 1347 1344 1341 1339
1451 1454 1454 1448 1442 1442 1441 1430 1431 1433 1431 1434 1433 1423 1419 1420 1420 1419 1418 1417 1416 1415 1413 1411 1408 1405 1402 1398 1394 1389 1385 1380 1375 1371 1366 1362 1357 1352 1348 1345 1342 1339 1336 1334
1447 1450 1450 1446 1445 1446 1424 1416 1416 1419 1419 1420 1419 1416 1416 1416 1416 1416 1415 1414 1412 1411 1409 1407 1404 1401 1398 1394 1390 1385 1380 1375 1371 1366 1362 1357 1352 1348 1344 1340 1337 1334 1332 1329
1440 1445 1445 1443 1440 1431 1418 1412 1413 1416 1416 1411 1413 1412 1412 1413 1413 1411 1411 1411 1409 1408 1406 1403 1400 1397 1393 1389 1385 1381 1376 1371 1367 1362 1357 1352 1348 1344 1340 1336 1333 1330 1327 1325
1437 1440 1442 1439 1437 1430 1413 1410 1409 1414 1417 1407 1406 1407 1409 1410 1414 1410 1407 1407 1406 1404 1402 1399 1396 1393 1389 1385 1381 1377 1372 1368 1363 1358 1354 1349 1345 1341 1337 1333 1329 1326 1324 1321
1436 1437 1437 1435 1432 1422 1409 1409 1410 1420 1413 1404 1403 1405 1406 1407 1408 1406 1404 1403 1402 1400 1398 1395 1392 1388 1385 1381 1377 1373 1368 1364 1360 1355 1350 1346 1342 1338 1334 1330 1327 1323 1321 1318
1425 1429 1430 1429 1429 1420 1405 1408 1410 1407 1402 1402 1402 1403 1404 1404 1403 1402 1401 1400 1398 1396 1393 1391 1388 1384 1381 1377 1373 1369 1365 1360 1356 1351 1347 1342 1338 1335 1331 1328 1324 1321 1318 1316
1413 1413 1413 1414 1410 1401 1400 1400 1400 1401 1401 1401 1401 1401 1401 1400 1400 1399 1398 1396 1394 1392 1389 1387 1384 1380 1377 1373 1370 1365 1361 1357 1352 1348 1343 1339 1336 1332 1329 1325 1322 1319 1317 1314
1404 1403 1405 1404 1399 1397 1397 1397 1398 1398 1398 1398 1399 1399 1399 1398 1396 1395 1394 1392 1390 1388 1386 1383 1380 1376 1372 1369 1366 1362 1358 1354 1349 1345 1341 1337 1333 1330 1326 1323 1321 1318 1315 1313
1397 1400 1401 1400 1396 1395 1393 1394 1395 1395 1395 1395 1395 1395 1395 1394 1393 1392 1390 1388 1386 1384 1382 1379 1376 1372 1368 1365 1361 1358 1354 1350 1346 1342 1338 1335 1331 1328 1324 1321 1319 1317 1315 1313
1392 1395 1397 1395 1392 1393 1391 1391 1391 1392 1391 1391 1391 1390 1390 1390 1389 1388 1386 1384 1382 1380 1378 1375 1372 1369 1365 1361 1358 1354 1351 1348 1344 1339 1336 1333 1329 1326 1323 1320 1317 1315 1313 1311